Starlink 1153

operational
NORAD ID: 45080 Int'l Des: 2020-006 Owner: SPXS Country: US Constellation: starlink
LEOCIRCULARSTARLINK_TYPE

Starlink 1153について

説明を読み込み中...

リアルタイム位置

3D地球を読み込み中...

次回通過

高度履歴

Altitude vs Time

uPlot chart will show altitude changes over time

軌道要素

1 45080U 20006AN 26036.32925627 -.00000416 00000-0 -20837-5 0 9996
2 45080 53.1580 47.8890 0001299 91.4998 268.6151 15.29347613331926
Epoch: Feb 5, 2026 • Age: 3 hours

現在のステータス

高度 486.0 km
速度 7.62 km/s
衛星直下点 -26.18°S, 86.81°E
打ち上げ日 Jan 29, 2020
運用期間 6 years
タイプ internet

技術仕様

分類 Payload
質量 260.00 kg
乾燥質量 248.00 kg
総質量 260.00 kg
長さ 0.20 m
直径 2.80 m
スパン 9.00 m
形状 Box + pan
製造者 SPXS
バスタイプ Starlink
フェーズステータス In Orbit
所有者/国 SPXS/US

大規模コンステレーション

Loading constellations...